LZIB

Bratislava/M.R. Stefanik Airport

Airport
ICAO code
LZIB
IATA Code
BTS
Summary
ICAO Region
EUR
ICAO Territory
Location

Ivanka, Bratislava

Serving
Bratislava
Elevation
436 ft
Coordinates
48° 10' 12" N , 17° 12' 48" E
KCC
Metar
LZIB 301700Z 27011KT 9999 VCSH FEW052CB 20/13 Q1005 NOSIG

International airport serving capital of Slovakia.

Climatology

Humid continental climate (Köppen climate classification Dfa)

Runways

Designator Length Width Surface Rops
4/22 2900 60 CON Yes/Yes
13/31 3190 45 CON Yes/Yes

Airport map

Aerial View

SKYbrary Partners:

Safety knowledge contributed by: